Home > Weather > Port St. Lucie > Past weeks

Flag for USA Past Weather in Port St. Lucie, Florida, USA — Yesterday and Last 2 Weeks

Now
91 °F

Scattered clouds.


Feels Like: 105 °F
Forecast: 76 / 91 °F
Wind: 10 mph from Southeast

Location: Witham Field Airport

Current Time: Jul 27, 2016 at 1:16:12 PM

Latest Report: Jul 27, 2016 at 11:47 AM


Visibility: 7 mi

Pressure: 30.11 "Hg

Humidity: 63%

Dew Point: 77 °F

Location of Port St. LucieLocation

Past Weather in Port St. Lucie — Graph

°F

Port St. Lucie Temperature Yesterday

Maximum temperature yesterday: 93 °F (at 1:47 PM)
Minimum temperature yesterday: 79 °F (at 6:35 AM)
Average temperature yesterday: 84 °F

High & Low Weather Summary for the Past Weeks

 TemperatureHumidityPressure
High93 °F (Jul 12, 2:47 PM)94% (Jul 13, 5:15 AM)30.22 "Hg (Jul 13, 5:15 AM)
Low75 °F (Jul 24, 6:35 AM)49% (Jul 15, 2:47 PM)30.01 "Hg (Jul 23, 6:47 PM)
Average84 °F77%30.10 "Hg
* Reported Jul 12 12:47 PM — Jul 27 11:47 AM, Port St. Lucie, Weather by CustomWeather, © 2016

Note: Actual official high and low records may vary slightly from our data, if they occured in-between our weather recording intervals... More about our weather records

Advertising

Port St. Lucie Weather History for the Previous 24 Hours

Scroll right to see more
 ConditionsComfort  
Time TempWeatherWind HumidityBarometerVisibility
11:47 AM
Wed, Jul 27
91 °FScattered clouds.10 mph63%30.11 "Hg7 mi
10:47 AM91 °FScattered clouds.8 mph59%30.11 "Hg7 mi
9:47 AM91 °FScattered clouds.8 mph63%30.12 "Hg7 mi
8:47 AM88 °FSunny.8 mph70%30.12 "Hg7 mi
6:47 AM81 °FThundershowers. Clear.No wind89%30.08 "Hg7 mi
6:35 AM79 °FClear.No wind94%30.08 "Hg10 mi
6:15 AM79 °FClear.No wind94%30.08 "Hg10 mi
5:55 AM79 °FClear.No wind94%30.07 "Hg10 mi
5:15 AM79 °FClear.No wind94%30.07 "Hg10 mi
4:55 AM79 °FClear.No wind94%30.07 "Hg10 mi
4:35 AM81 °FClear.No wind89%30.07 "Hg10 mi
4:15 AM79 °FClear.No wind94%30.07 "Hg10 mi
3:55 AM81 °FClear.No wind89%30.07 "Hg10 mi
3:35 AM81 °FClear.No wind89%30.07 "Hg10 mi
3:15 AM81 °FClear.No wind89%30.07 "Hg10 mi
2:55 AM81 °FClear.No wind89%30.08 "Hg10 mi
2:35 AM81 °FClear.No wind89%30.08 "Hg10 mi
2:15 AM82 °FClear.No wind84%30.08 "Hg10 mi
1:55 AM82 °FClear.3 mph84%30.09 "Hg10 mi
1:35 AM81 °FClear.3 mph89%30.09 "Hg10 mi
1:15 AM82 °FClear.No wind84%30.09 "Hg10 mi
12:55 AM82 °FClear.5 mph84%30.10 "Hg10 mi
12:35 AM82 °FClear.No wind84%30.10 "Hg10 mi
12:15 AM82 °FClear.3 mph84%30.10 "Hg10 mi
11:55 PM
Tue, Jul 26
82 °FClear.3 mph84%30.10 "Hg10 mi
11:35 PM82 °FClear.3 mph84%30.10 "Hg10 mi
11:15 PM82 °FClear.3 mph84%30.10 "Hg10 mi
10:55 PM82 °FClear.5 mph84%30.10 "Hg10 mi
10:35 PM82 °FClear.3 mph79%30.10 "Hg10 mi
10:15 PM82 °FClear.5 mph79%30.09 "Hg10 mi
8:47 PM86 °FThundershowers. Sunny.9 mph70%30.07 "Hg7 mi
6:47 PM91 °FSunny.10 mph59%30.04 "Hg7 mi
5:47 PM91 °FPassing clouds.12 mph56%30.05 "Hg7 mi
3:47 PM93 °FScattered clouds.14 mph53%30.07 "Hg7 mi
2:47 PM93 °FScattered clouds.14 mph56%30.08 "Hg7 mi
1:47 PM93 °FPassing clouds.13 mph53%30.10 "Hg7 mi
Weather by CustomWeather, © 2016

See weather overviewHow to use our weather pages